QPF
0.00 0.01 0.00 0.00 0.00 0.00 0.00 0.00 0.00 0.01 0.01 0.03 0.04 0.05 0.09 0.10 0.04 0.02 0.02 0.05 0.05 0.08 0.09 0.05 0.05 0.06 0.05 0.05 0.04 0.04 0.05 0.05 0.04 0.03 0.02 0.03 0.03 0.03 0.05 0.05 0.05 0.06 0.06 0.07
0.00 0.01 0.00 0.01 0.01 0.01 0.01 0.00 0.00 0.01 0.02 0.04 0.05 0.04 0.05 0.05 0.03 0.03 0.03 0.06 0.05 0.05 0.06 0.05 0.05 0.06 0.07 0.06 0.06 0.06 0.06 0.05 0.04 0.03 0.04 0.04 0.04 0.03 0.06 0.06 0.05 0.05 0.06 0.07
0.01 0.01 0.01 0.01 0.01 0.03 0.04 0.02 0.01 0.01 0.02 0.02 0.03 0.04 0.04 0.03 0.04 0.03 0.02 0.04 0.06 0.06 0.05 0.06 0.06 0.07 0.08 0.08 0.07 0.06 0.06 0.06 0.05 0.05 0.05 0.05 0.04 0.05 0.07 0.07 0.04 0.03 0.04 0.05
0.00 0.01 0.02 0.02 0.01 0.02 0.02 0.01 0.01 0.02 0.02 0.03 0.05 0.06 0.06 0.04 0.04 0.04 0.04 0.03 0.04 0.04 0.05 0.05 0.05 0.04 0.04 0.05 0.05 0.06 0.06 0.07 0.08 0.09 0.08 0.07 0.05 0.04 0.06 0.06 0.04 0.05 0.05 0.06
0.00 0.01 0.01 0.01 0.01 0.01 0.01 0.02 0.02 0.02 0.02 0.07 0.09 0.08 0.09 0.08 0.05 0.04 0.03 0.03 0.03 0.04 0.04 0.04 0.05 0.04 0.03 0.03 0.04 0.06 0.05 0.06 0.07 0.07 0.07 0.07 0.06 0.04 0.05 0.04 0.05 0.06 0.06 0.06
0.01 0.01 0.01 0.01 0.01 0.01 0.01 0.04 0.03 0.02 0.03 0.07 0.08 0.06 0.07 0.07 0.08 0.06 0.03 0.02 0.02 0.03 0.03 0.03 0.04 0.04 0.03 0.04 0.04 0.05 0.05 0.05 0.05 0.04 0.04 0.06 0.06 0.05 0.04 0.04 0.06 0.06 0.06 0.05
0.01 0.01 0.01 0.01 0.01 0.00 0.02 0.03 0.03 0.02 0.02 0.04 0.06 0.06 0.06 0.06 0.06 0.05 0.03 0.02 0.02 0.02 0.02 0.03 0.04 0.04 0.05 0.05 0.04 0.03 0.03 0.03 0.04 0.04 0.05 0.06 0.08 0.06 0.05 0.05 0.06 0.05 0.06 0.06
0.01 0.01 0.01 0.01 0.01 0.02 0.04 0.03 0.04 0.04 0.05 0.05 0.05 0.05 0.06 0.06 0.07 0.06 0.04 0.03 0.02 0.02 0.01 0.04 0.05 0.04 0.04 0.04 0.04 0.04 0.04 0.04 0.04 0.05 0.06 0.07 0.07 0.06 0.06 0.07 0.06 0.05 0.05 0.06
0.02 0.02 0.02 0.02 0.05 0.05 0.05 0.03 0.04 0.04 0.03 0.04 0.04 0.05 0.08 0.10 0.09 0.08 0.05 0.04 0.02 0.01 0.01 0.02 0.04 0.04 0.05 0.05 0.05 0.05 0.06 0.07 0.07 0.07 0.07 0.08 0.08 0.07 0.08 0.08 0.07 0.06 0.06 0.06
0.04 0.04 0.06 0.07 0.09 0.08 0.05 0.03 0.05 0.06 0.04 0.05 0.06 0.05 0.07 0.10 0.08 0.05 0.03 0.04 0.03 0.01 0.01 0.01 0.01 0.02 0.04 0.05 0.05 0.05 0.06 0.08 0.08 0.08 0.08 0.08 0.09 0.08 0.06 0.05 0.05 0.05 0.06 0.05
0.07 0.07 0.11 0.09 0.09 0.10 0.07 0.04 0.04 0.05 0.04 0.05 0.07 0.06 0.05 0.05 0.05 0.04 0.03 0.03 0.02 0.02 0.02 0.02 0.02 0.03 0.03 0.04 0.04 0.04 0.06 0.07 0.05 0.06 0.08 0.08 0.08 0.07 0.07 0.07 0.06 0.05 0.05 0.05
0.07 0.07 0.11 0.10 0.08 0.11 0.10 0.07 0.05 0.07 0.07 0.06 0.07 0.10 0.09 0.06 0.05 0.04 0.02 0.02 0.02 0.02 0.02 0.03 0.03 0.03 0.04 0.05 0.05 0.05 0.08 0.10 0.09 0.08 0.07 0.07 0.07 0.06 0.09 0.09 0.07 0.07 0.05 0.04
0.07 0.04 0.05 0.06 0.08 0.09 0.08 0.09 0.06 0.11 0.16 0.14 0.10 0.10 0.12 0.10 0.07 0.06 0.03 0.03 0.03 0.03 0.03 0.03 0.02 0.03 0.04 0.06 0.06 0.07 0.09 0.11 0.13 0.12 0.10 0.10 0.09 0.07 0.06 0.06 0.07 0.06 0.04 0.03
0.05 0.04 0.04 0.04 0.07 0.05 0.04 0.06 0.08 0.17 0.15 0.14 0.14 0.09 0.09 0.10 0.08 0.06 0.05 0.05 0.06 0.10 0.08 0.11 0.06 0.05 0.05 0.05 0.05 0.06 0.09 0.13 0.15 0.13 0.12 0.12 0.13 0.14 0.12 0.09 0.07 0.05 0.04 0.03
0.10 0.07 0.07 0.06 0.06 0.06 0.03 0.05 0.12 0.16 0.12 0.08 0.08 0.08 0.12 0.15 0.13 0.13 0.12 0.11 0.12 0.14 0.08 0.06 0.07 0.06 0.06 0.05 0.06 0.06 0.06 0.06 0.09 0.12 0.11 0.11 0.12 0.11 0.11 0.09 0.06 0.05 0.04 0.04
0.05 0.04 0.04 0.04 0.04 0.05 0.05 0.07 0.11 0.10 0.11 0.07 0.06 0.06 0.07 0.08 0.08 0.09 0.07 0.05 0.04 0.04 0.03 0.02 0.03 0.04 0.05 0.04 0.05 0.06 0.07 0.06 0.05 0.06 0.08 0.10 0.11 0.09 0.07 0.06 0.04 0.03 0.03 0.03
0.04 0.04 0.03 0.03 0.04 0.05 0.05 0.05 0.06 0.08 0.10 0.07 0.06 0.06 0.07 0.08 0.07 0.08 0.07 0.04 0.03 0.02 0.02 0.02 0.02 0.03 0.04 0.04 0.06 0.07 0.08 0.07 0.06 0.06 0.07 0.08 0.09 0.09 0.07 0.05 0.04 0.03 0.03 0.03
0.05 0.04 0.04 0.04 0.06 0.06 0.06 0.05 0.05 0.06 0.06 0.06 0.07 0.08 0.10 0.10 0.09 0.09 0.06 0.04 0.04 0.03 0.02 0.02 0.02 0.03 0.04 0.05 0.08 0.09 0.09 0.09 0.08 0.07 0.08 0.09 0.07 0.07 0.07 0.06 0.04 0.03 0.03 0.03
0.06 0.05 0.05 0.05 0.06 0.06 0.05 0.06 0.05 0.03 0.04 0.05 0.09 0.06 0.08 0.10 0.09 0.07 0.06 0.05 0.04 0.03 0.03 0.02 0.02 0.02 0.03 0.04 0.07 0.11 0.13 0.11 0.10 0.09 0.08 0.08 0.07 0.07 0.07 0.06 0.05 0.04 0.03 0.03
0.07 0.06 0.05 0.05 0.05 0.05 0.04 0.04 0.04 0.03 0.03 0.05 0.05 0.04 0.07 0.08 0.08 0.06 0.07 0.07 0.05 0.04 0.04 0.03 0.03 0.03 0.04 0.05 0.07 0.09 0.11 0.10 0.10 0.09 0.08 0.08 0.08 0.08 0.08 0.07 0.04 0.04 0.04 0.04
0.06 0.06 0.07 0.05 0.04 0.04 0.03 0.03 0.03 0.03 0.03 0.04 0.04 0.04 0.06 0.07 0.04 0.05 0.06 0.08 0.08 0.08 0.08 0.07 0.05 0.04 0.05 0.08 0.12 0.11 0.10 0.09 0.08 0.09 0.07 0.07 0.09 0.10 0.11 0.10 0.08 0.06 0.05 0.04
0.05 0.06 0.08 0.08 0.05 0.04 0.03 0.03 0.02 0.02 0.03 0.03 0.03 0.03 0.04 0.07 0.05 0.05 0.05 0.04 0.06 0.07 0.07 0.08 0.06 0.06 0.09 0.12 0.16 0.16 0.11 0.10 0.11 0.08 0.07 0.08 0.10 0.11 0.10 0.11 0.11 0.09 0.06 0.05
0.07 0.09 0.11 0.09 0.05 0.04 0.04 0.03 0.02 0.02 0.02 0.02 0.02 0.02 0.02 0.04 0.06 0.07 0.06 0.04 0.04 0.05 0.05 0.06 0.08 0.10 0.11 0.11 0.13 0.19 0.15 0.11 0.11 0.10 0.07 0.07 0.08 0.07 0.05 0.04 0.05 0.05 0.04 0.04
0.07 0.08 0.10 0.08 0.05 0.05 0.05 0.04 0.03 0.03 0.03 0.02 0.02 0.03 0.03 0.03 0.05 0.08 0.06 0.05 0.05 0.07 0.07 0.08 0.10 0.10 0.10 0.09 0.09 0.13 0.14 0.10 0.07 0.08 0.08 0.07 0.04 0.02 0.02 0.02 0.02 0.03 0.03 0.02
0.06 0.07 0.10 0.10 0.07 0.06 0.06 0.05 0.04 0.04 0.04 0.03 0.03 0.04 0.03 0.04 0.05 0.06 0.05 0.06 0.09 0.10 0.09 0.08 0.08 0.08 0.07 0.06 0.06 0.07 0.10 0.09 0.07 0.06 0.05 0.03 0.02 0.02 0.02 0.01 0.01 0.02 0.02 0.02
0.07 0.08 0.10 0.10 0.08 0.08 0.08 0.07 0.05 0.04 0.04 0.05 0.04 0.04 0.04 0.06 0.07 0.06 0.07 0.10 0.12 0.12 0.09 0.06 0.05 0.06 0.07 0.07 0.06 0.06 0.06 0.06 0.06 0.04 0.02 0.01 0.01 0.01 0.01 0.01 0.00 0.01 0.01 0.01
0.11 0.11 0.09 0.11 0.10 0.08 0.09 0.08 0.07 0.08 0.07 0.06 0.06 0.06 0.06 0.08 0.08 0.06 0.07 0.10 0.11 0.09 0.07 0.05 0.04 0.06 0.06 0.07 0.06 0.05 0.05 0.04 0.03 0.02 0.02 0.02 0.01 0.01 0.00 0.00 0.00 0.00 0.00 0.01
MSLP
1012.09 1012.53 1012.92 1013.23 1013.43 1013.49 1013.40 1013.14 1012.74 1012.24 1011.69 1011.15 1010.71 1010.40 1010.26 1010.30 1010.48 1010.78 1011.12 1011.47 1011.76 1011.97 1012.10 1012.16 1012.18 1012.19 1012.22 1012.28 1012.39 1012.52 1012.65 1012.75 1012.78 1012.74 1012.63 1012.45 1012.24 1012.03 1011.85 1011.72 1011.67 1011.68 1011.75 1011.84
1012.41 1012.78 1013.02 1013.12 1013.07 1012.86 1012.52 1012.07 1011.57 1011.05 1010.58 1010.21 1009.98 1009.90 1009.99 1010.21 1010.52 1010.89 1011.27 1011.60 1011.86 1012.05 1012.18 1012.26 1012.34 1012.44 1012.57 1012.75 1012.96 1013.18 1013.38 1013.52 1013.60 1013.59 1013.50 1013.34 1013.16 1012.97 1012.81 1012.70 1012.65 1012.65 1012.69 1012.76
1012.83 1013.12 1013.22 1013.13 1012.85 1012.41 1011.86 1011.25 1010.65 1010.10 1009.68 1009.41 1009.32 1009.40 1009.64 1009.99 1010.40 1010.83 1011.23 1011.57 1011.84 1012.04 1012.20 1012.34 1012.50 1012.69 1012.92 1013.20 1013.50 1013.80 1014.06 1014.26 1014.38 1014.42 1014.38 1014.29 1014.16 1014.04 1013.94 1013.88 1013.86 1013.87 1013.91 1013.95
1013.34 1013.53 1013.49 1013.24 1012.78 1012.16 1011.45 1010.71 1010.02 1009.44 1009.03 1008.81 1008.80 1008.97 1009.30 1009.72 1010.19 1010.66 1011.09 1011.46 1011.76 1012.01 1012.24 1012.46 1012.70 1012.99 1013.31 1013.67 1014.04 1014.39 1014.70 1014.94 1015.11 1015.20 1015.22 1015.21 1015.17 1015.14 1015.13 1015.14 1015.18 1015.22 1015.27 1015.30
1013.84 1013.92 1013.76 1013.38 1012.80 1012.06 1011.24 1010.42 1009.67 1009.07 1008.65 1008.44 1008.45 1008.66 1009.01 1009.47 1009.97 1010.47 1010.93 1011.35 1011.72 1012.05 1012.36 1012.68 1013.02 1013.40 1013.80 1014.21 1014.62 1015.00 1015.32 1015.58 1015.78 1015.91 1016.00 1016.07 1016.13 1016.20 1016.28 1016.38 1016.48 1016.57 1016.63 1016.65
1014.24 1014.20 1013.95 1013.48 1012.82 1012.03 1011.17 1010.32 1009.56 1008.94 1008.51 1008.30 1008.31 1008.51 1008.85 1009.31 1009.81 1010.33 1010.84 1011.32 1011.77 1012.20 1012.62 1013.04 1013.48 1013.94 1014.40 1014.85 1015.27 1015.64 1015.96 1016.21 1016.42 1016.58 1016.71 1016.85 1016.99 1017.15 1017.33 1017.51 1017.67 1017.80 1017.88 1017.91
1014.47 1014.32 1013.99 1013.47 1012.80 1012.01 1011.18 1010.36 1009.62 1009.02 1008.59 1008.37 1008.36 1008.53 1008.85 1009.27 1009.77 1010.31 1010.85 1011.40 1011.94 1012.47 1013.01 1013.55 1014.08 1014.61 1015.12 1015.58 1016.00 1016.35 1016.64 1016.87 1017.05 1017.22 1017.38 1017.56 1017.77 1018.00 1018.24 1018.48 1018.70 1018.87 1018.97 1019.01
1014.46 1014.22 1013.85 1013.33 1012.70 1011.98 1011.22 1010.48 1009.81 1009.26 1008.86 1008.64 1008.61 1008.74 1009.01 1009.40 1009.87 1010.41 1010.99 1011.60 1012.22 1012.86 1013.51 1014.15 1014.77 1015.37 1015.91 1016.39 1016.79 1017.11 1017.36 1017.55 1017.71 1017.86 1018.03 1018.23 1018.47 1018.74 1019.03 1019.31 1019.56 1019.75 1019.87 1019.92
1014.23 1013.93 1013.55 1013.08 1012.52 1011.92 1011.28 1010.67 1010.11 1009.64 1009.29 1009.08 1009.02 1009.11 1009.33 1009.67 1010.11 1010.63 1011.23 1011.88 1012.58 1013.30 1014.04 1014.77 1015.48 1016.13 1016.70 1017.19 1017.58 1017.87 1018.09 1018.25 1018.38 1018.52 1018.68 1018.88 1019.13 1019.42 1019.72 1020.02 1020.29 1020.49 1020.63 1020.69
1013.83 1013.51 1013.15 1012.75 1012.32 1011.86 1011.38 1010.92 1010.49 1010.12 1009.84 1009.65 1009.58 1009.63 1009.79 1010.07 1010.46 1010.95 1011.54 1012.21 1012.95 1013.74 1014.54 1015.34 1016.10 1016.80 1017.41 1017.91 1018.30 1018.59 1018.79 1018.94 1019.06 1019.18 1019.33 1019.53 1019.77 1020.06 1020.36 1020.66 1020.93 1021.14 1021.29 1021.38
1013.34 1013.02 1012.72 1012.42 1012.13 1011.83 1011.52 1011.22 1010.94 1010.68 1010.47 1010.31 1010.23 1010.24 1010.35 1010.56 1010.89 1011.33 1011.89 1012.55 1013.29 1014.10 1014.94 1015.78 1016.58 1017.31 1017.95 1018.47 1018.89 1019.19 1019.40 1019.56 1019.69 1019.82 1019.97 1020.17 1020.41 1020.69 1020.98 1021.27 1021.53 1021.75 1021.92 1022.03
1012.83 1012.54 1012.31 1012.13 1011.97 1011.83 1011.69 1011.55 1011.41 1011.26 1011.12 1011.00 1010.92 1010.90 1010.96 1011.11 1011.37 1011.75 1012.25 1012.87 1013.58 1014.38 1015.21 1016.05 1016.86 1017.62 1018.28 1018.84 1019.28 1019.62 1019.88 1020.07 1020.24 1020.40 1020.58 1020.79 1021.04 1021.31 1021.60 1021.89 1022.15 1022.37 1022.55 1022.69
1012.35 1012.11 1011.96 1011.88 1011.85 1011.85 1011.86 1011.86 1011.84 1011.79 1011.72 1011.65 1011.58 1011.55 1011.57 1011.67 1011.87 1012.18 1012.62 1013.17 1013.83 1014.57 1015.37 1016.18 1016.98 1017.73 1018.41 1018.99 1019.48 1019.87 1020.19 1020.45 1020.68 1020.90 1021.13 1021.38 1021.65 1021.93 1022.22 1022.50 1022.77 1023.00 1023.20 1023.37
1011.91 1011.72 1011.64 1011.64 1011.72 1011.83 1011.96 1012.07 1012.15 1012.20 1012.21 1012.19 1012.15 1012.13 1012.14 1012.21 1012.37 1012.63 1013.00 1013.48 1014.07 1014.74 1015.47 1016.22 1016.98 1017.70 1018.38 1018.98 1019.51 1019.96 1020.35 1020.69 1021.01 1021.30 1021.60 1021.90 1022.20 1022.51 1022.82 1023.11 1023.37 1023.62 1023.83 1024.03
1011.51 1011.35 1011.32 1011.39 1011.53 1011.72 1011.93 1012.13 1012.30 1012.42 1012.51 1012.55 1012.58 1012.59 1012.63 1012.71 1012.86 1013.09 1013.41 1013.83 1014.34 1014.92 1015.57 1016.24 1016.93 1017.61 1018.26 1018.86 1019.42 1019.93 1020.39 1020.82 1021.22 1021.60 1021.98 1022.34 1022.70 1023.04 1023.36 1023.66 1023.94 1024.19 1024.42 1024.64
1011.11 1010.98 1010.97 1011.06 1011.24 1011.47 1011.73 1011.99 1012.22 1012.42 1012.59 1012.72 1012.82 1012.92 1013.02 1013.15 1013.33 1013.56 1013.86 1014.23 1014.67 1015.17 1015.73 1016.31 1016.92 1017.53 1018.13 1018.72 1019.29 1019.84 1020.36 1020.86 1021.35 1021.81 1022.26 1022.69 1023.10 1023.48 1023.83 1024.14 1024.43 1024.68 1024.92 1025.14
1010.71 1010.57 1010.56 1010.65 1010.83 1011.08 1011.35 1011.64 1011.92 1012.19 1012.44 1012.67 1012.88 1013.08 1013.29 1013.51 1013.75 1014.02 1014.33 1014.68 1015.07 1015.50 1015.97 1016.46 1016.98 1017.51 1018.06 1018.61 1019.17 1019.74 1020.30 1020.86 1021.41 1021.95 1022.46 1022.95 1023.40 1023.81 1024.18 1024.51 1024.80 1025.05 1025.29 1025.50
1010.30 1010.15 1010.12 1010.18 1010.34 1010.56 1010.83 1011.13 1011.45 1011.78 1012.11 1012.44 1012.77 1013.10 1013.44 1013.77 1014.11 1014.45 1014.80 1015.15 1015.52 1015.89 1016.28 1016.69 1017.12 1017.57 1018.05 1018.56 1019.10 1019.66 1020.25 1020.84 1021.44 1022.03 1022.59 1023.12 1023.60 1024.04 1024.42 1024.76 1025.04 1025.29 1025.51 1025.72
1009.92 1009.75 1009.68 1009.70 1009.82 1010.00 1010.24 1010.54 1010.88 1011.25 1011.66 1012.09 1012.55 1013.01 1013.47 1013.94 1014.38 1014.81 1015.22 1015.60 1015.95 1016.30 1016.63 1016.97 1017.32 1017.70 1018.11 1018.57 1019.08 1019.63 1020.21 1020.82 1021.44 1022.06 1022.65 1023.20 1023.71 1024.15 1024.54 1024.87 1025.15 1025.39 1025.60 1025.79
1009.60 1009.41 1009.30 1009.29 1009.35 1009.48 1009.69 1009.97 1010.31 1010.72 1011.19 1011.71 1012.26 1012.84 1013.43 1014.01 1014.56 1015.07 1015.54 1015.95 1016.32 1016.64 1016.94 1017.22 1017.52 1017.84 1018.20 1018.62 1019.09 1019.61 1020.19 1020.79 1021.42 1022.04 1022.64 1023.20 1023.71 1024.16 1024.55 1024.88 1025.15 1025.38 1025.58 1025.76
1009.37 1009.16 1009.04 1008.98 1008.99 1009.08 1009.25 1009.51 1009.84 1010.27 1010.78 1011.35 1011.99 1012.66 1013.34 1014.01 1014.65 1015.23 1015.74 1016.19 1016.56 1016.88 1017.15 1017.41 1017.66 1017.95 1018.27 1018.65 1019.10 1019.60 1020.16 1020.75 1021.37 1021.98 1022.58 1023.13 1023.64 1024.08 1024.46 1024.78 1025.05 1025.28 1025.47 1025.65
1009.21 1009.01 1008.87 1008.79 1008.78 1008.83 1008.97 1009.20 1009.53 1009.96 1010.49 1011.11 1011.79 1012.51 1013.25 1013.97 1014.65 1015.28 1015.82 1016.28 1016.66 1016.98 1017.24 1017.48 1017.72 1017.98 1018.29 1018.65 1019.07 1019.56 1020.10 1020.68 1021.28 1021.88 1022.46 1023.00 1023.48 1023.92 1024.29 1024.61 1024.88 1025.11 1025.32 1025.51
1009.08 1008.91 1008.78 1008.70 1008.67 1008.72 1008.84 1009.06 1009.39 1009.82 1010.36 1010.98 1011.68 1012.42 1013.18 1013.92 1014.62 1015.24 1015.79 1016.25 1016.63 1016.94 1017.20 1017.44 1017.67 1017.93 1018.24 1018.59 1019.01 1019.49 1020.02 1020.58 1021.16 1021.73 1022.28 1022.80 1023.27 1023.69 1024.05 1024.38 1024.65 1024.90 1025.13 1025.35
1008.90 1008.78 1008.68 1008.62 1008.61 1008.67 1008.81 1009.04 1009.37 1009.82 1010.36 1010.99 1011.69 1012.42 1013.17 1013.89 1014.57 1015.17 1015.70 1016.14 1016.51 1016.81 1017.07 1017.31 1017.55 1017.82 1018.13 1018.50 1018.92 1019.39 1019.91 1020.45 1021.00 1021.55 1022.07 1022.56 1023.00 1023.41 1023.77 1024.09 1024.39 1024.66 1024.92 1025.17
1008.59 1008.52 1008.48 1008.47 1008.50 1008.60 1008.78 1009.05 1009.42 1009.89 1010.45 1011.09 1011.78 1012.49 1013.21 1013.90 1014.54 1015.10 1015.59 1016.01 1016.35 1016.64 1016.89 1017.14 1017.39 1017.68 1018.01 1018.39 1018.82 1019.29 1019.79 1020.31 1020.84 1021.35 1021.84 1022.29 1022.71 1023.10 1023.46 1023.78 1024.10 1024.40 1024.69 1024.98
1008.08 1008.07 1008.09 1008.15 1008.25 1008.43 1008.68 1009.02 1009.45 1009.97 1010.57 1011.22 1011.92 1012.62 1013.31 1013.96 1014.55 1015.07 1015.51 1015.89 1016.20 1016.48 1016.73 1016.98 1017.25 1017.55 1017.90 1018.29 1018.73 1019.20 1019.69 1020.19 1020.68 1021.16 1021.61 1022.03 1022.42 1022.79 1023.13 1023.47 1023.79 1024.12 1024.44 1024.77
1007.35 1007.40 1007.49 1007.62 1007.82 1008.09 1008.45 1008.88 1009.40 1010.00 1010.65 1011.34 1012.06 1012.76 1013.43 1014.05 1014.60 1015.07 1015.48 1015.82 1016.11 1016.37 1016.62 1016.88 1017.16 1017.49 1017.85 1018.25 1018.69 1019.16 1019.64 1020.11 1020.57 1021.01 1021.42 1021.80 1022.16 1022.50 1022.83 1023.16 1023.50 1023.83 1024.18 1024.53
Thickness
5731 5743 5747 5746 5750 5753 5745 5737 5730 5738 5747 5759 5770 5777 5782 5787 5789 5789 5788 5789 5790 5789 5788 5790 5791 5792 5792 5791 5791 5789 5784 5780 5778 5776 5774 5772 5769 5767 5764 5762 5759 5757 5754 5752
5723 5738 5741 5741 5748 5751 5750 5749 5745 5747 5748 5765 5771 5775 5777 5779 5781 5780 5781 5783 5784 5785 5784 5785 5786 5786 5786 5785 5785 5784 5780 5777 5775 5773 5771 5768 5766 5764 5761 5758 5755 5754 5751 5749
5700 5721 5726 5718 5738 5745 5746 5750 5748 5740 5748 5760 5760 5764 5767 5771 5774 5775 5776 5778 5778 5778 5778 5780 5781 5783 5781 5779 5780 5778 5776 5773 5771 5769 5766 5765 5763 5760 5756 5753 5752 5749 5747 5745
5690 5703 5692 5716 5746 5750 5745 5747 5753 5753 5755 5759 5760 5762 5766 5770 5769 5769 5770 5772 5773 5773 5773 5775 5776 5777 5777 5776 5775 5773 5771 5769 5767 5765 5762 5760 5758 5755 5752 5750 5747 5745 5743 5741
5674 5678 5692 5719 5738 5742 5735 5730 5745 5747 5751 5754 5758 5756 5753 5761 5764 5765 5767 5768 5769 5770 5770 5769 5769 5770 5770 5769 5768 5767 5765 5764 5763 5761 5757 5755 5752 5750 5748 5745 5742 5740 5738 5736
5670 5674 5675 5704 5734 5747 5736 5716 5736 5742 5744 5746 5747 5731 5736 5751 5756 5758 5760 5762 5763 5763 5763 5761 5761 5763 5761 5760 5760 5759 5759 5759 5758 5757 5753 5750 5747 5745 5743 5741 5737 5735 5732 5729
5664 5667 5680 5711 5731 5737 5706 5708 5731 5735 5737 5738 5736 5736 5741 5747 5749 5751 5752 5754 5755 5755 5754 5753 5755 5755 5752 5751 5752 5754 5754 5754 5752 5751 5748 5746 5743 5740 5738 5735 5731 5728 5725 5722
5657 5658 5670 5710 5718 5710 5708 5721 5727 5728 5730 5731 5733 5737 5738 5740 5740 5742 5742 5743 5745 5744 5744 5746 5747 5747 5745 5744 5746 5747 5747 5746 5744 5744 5743 5741 5737 5733 5731 5728 5724 5720 5717 5714
5662 5668 5688 5702 5705 5711 5715 5715 5720 5722 5724 5726 5726 5726 5728 5728 5729 5732 5734 5734 5735 5736 5736 5737 5739 5740 5737 5737 5739 5739 5738 5736 5735 5734 5734 5732 5729 5726 5722 5720 5717 5713 5710 5706
5662 5672 5684 5693 5701 5705 5709 5711 5715 5718 5719 5720 5717 5717 5718 5719 5720 5722 5724 5726 5726 5727 5726 5727 5729 5730 5730 5731 5732 5731 5729 5727 5726 5724 5723 5722 5720 5718 5715 5712 5710 5707 5703 5699
5654 5666 5675 5684 5690 5695 5699 5704 5706 5708 5710 5710 5710 5708 5708 5707 5710 5714 5716 5717 5717 5717 5717 5718 5720 5721 5722 5724 5724 5722 5720 5718 5717 5715 5713 5711 5708 5705 5704 5703 5703 5701 5698 5694
5647 5660 5663 5670 5682 5687 5688 5691 5695 5697 5698 5700 5701 5700 5700 5700 5702 5705 5706 5707 5708 5709 5709 5710 5711 5712 5714 5716 5717 5715 5712 5709 5708 5706 5703 5701 5699 5694 5692 5693 5692 5692 5690 5688
5653 5662 5665 5670 5676 5679 5680 5683 5686 5688 5689 5689 5691 5692 5692 5692 5693 5695 5696 5697 5699 5700 5700 5701 5702 5702 5704 5707 5708 5706 5704 5702 5700 5697 5694 5691 5690 5688 5684 5680 5680 5679 5678 5677
5654 5658 5657 5663 5666 5671 5674 5676 5678 5679 5681 5681 5682 5683 5683 5682 5683 5684 5686 5688 5690 5692 5692 5692 5692 5693 5696 5697 5698 5697 5695 5694 5693 5690 5686 5683 5681 5678 5676 5674 5670 5666 5665 5664
5648 5652 5653 5657 5659 5663 5666 5668 5667 5668 5670 5671 5673 5674 5674 5673 5673 5675 5677 5680 5682 5682 5682 5683 5684 5685 5687 5689 5689 5688 5687 5685 5684 5681 5678 5676 5672 5669 5667 5664 5661 5658 5655 5653
5641 5645 5648 5649 5651 5654 5656 5657 5658 5659 5662 5663 5664 5665 5666 5667 5667 5667 5669 5671 5672 5672 5673 5675 5676 5677 5679 5680 5680 5680 5679 5678 5676 5673 5669 5666 5664 5661 5658 5655 5652 5649 5647 5644
5630 5632 5636 5639 5643 5646 5647 5649 5651 5653 5655 5655 5655 5656 5657 5657 5657 5657 5659 5662 5664 5665 5667 5667 5669 5671 5672 5673 5674 5672 5671 5669 5668 5665 5661 5658 5656 5653 5650 5647 5643 5640 5637 5635
5627 5629 5632 5635 5638 5640 5641 5643 5645 5645 5646 5648 5649 5649 5648 5647 5647 5649 5651 5654 5656 5657 5659 5661 5663 5665 5666 5667 5666 5665 5663 5661 5659 5657 5654 5651 5648 5645 5642 5639 5635 5632 5628 5625
5621 5624 5627 5631 5633 5634 5635 5636 5637 5638 5640 5640 5640 5640 5641 5641 5642 5643 5645 5646 5647 5648 5652 5654 5656 5658 5658 5659 5659 5658 5656 5654 5651 5648 5646 5643 5640 5637 5634 5631 5627 5624 5620 5616
5618 5620 5623 5625 5628 5629 5629 5631 5631 5632 5632 5632 5632 5632 5632 5633 5635 5637 5638 5638 5641 5644 5647 5648 5649 5650 5651 5652 5652 5650 5648 5646 5644 5641 5638 5635 5632 5629 5626 5623 5619 5615 5611 5607
5612 5615 5617 5619 5621 5623 5625 5626 5626 5625 5625 5625 5625 5625 5625 5627 5629 5630 5631 5632 5635 5639 5641 5642 5643 5643 5644 5644 5644 5643 5641 5639 5637 5635 5632 5628 5625 5622 5618 5615 5610 5607 5603 5598
5606 5609 5611 5613 5614 5615 5618 5619 5620 5620 5619 5618 5619 5619 5620 5621 5623 5624 5626 5628 5630 5632 5634 5635 5636 5637 5637 5637 5636 5635 5634 5631 5629 5627 5624 5620 5617 5614 5610 5606 5601 5598 5594 5589
5599 5602 5604 5606 5607 5608 5611 5612 5614 5615 5615 5614 5614 5615 5616 5616 5617 5618 5618 5621 5624 5627 5628 5629 5630 5631 5630 5629 5629 5628 5626 5624 5621 5619 5616 5613 5609 5605 5601 5597 5593 5589 5585 5581
5594 5596 5598 5600 5602 5603 5603 5605 5607 5609 5609 5609 5611 5612 5612 5611 5611 5613 5615 5617 5619 5620 5621 5622 5623 5623 5623 5622 5621 5620 5618 5616 5613 5610 5607 5604 5601 5597 5593 5590 5585 5581 5577 5572
5589 5591 5593 5595 5596 5597 5599 5600 5601 5601 5602 5603 5604 5605 5606 5607 5608 5609 5610 5611 5612 5613 5613 5614 5615 5616 5615 5614 5613 5611 5609 5607 5605 5602 5599 5596 5592 5589 5585 5582 5577 5573 5569 5564
5583 5585 5587 5590 5591 5593 5594 5595 5595 5595 5596 5596 5597 5599 5600 5602 5603 5603 5604 5606 5607 5607 5606 5606 5607 5606 5606 5605 5604 5602 5600 5598 5595 5592 5590 5587 5583 5580 5577 5573 5570 5566 5562 5557
5577 5580 5581 5583 5586 5588 5589 5590 5590 5590 5592 5593 5592 5593 5595 5596 5596 5597 5598 5599 5599 5600 5599 5599 5598 5598 5597 5596 5595 5593 5591 5589 5587 5584 5581 5578 5574 5571 5568 5565 5561 5557 5554 5549